Location: ????? ???????
(25.7275°N, 32.5929°E)
Time: 10:58:32
(UTC+00:00)

Cosmos 2360 Rocket - Pass Details

Date: 02 March 2021
Orbit: 832 x 846 km, 71.0° (Epoch: 16 April)

Event Time Altitude Azimuth Distance (km) Brightness Sun altitude
Rises 17:05:20 0° 212° (SSW) 3,368 5.8 -17.3°
Reaches altitude 10° 17:07:51 10° 218° (SW) 2,438 5.1 -17.9°
Maximum altitude 17:13:12 46° 291° (WNW) 1,109 3.2 -19.1°
Drops below altitude 10° 17:18:36 10° 4° (N) 2,456 4.6 -20.3°
Sets 17:21:09 0° 11° (N) 3,395 5.3 -20.9°
